QPF
0.13 0.14 0.18 0.17 0.15 0.12 0.10 0.09 0.09 0.10 0.10 0.10 0.09 0.08 0.08 0.07 0.09 0.11 0.10 0.10 0.08 0.07 0.06 0.09 0.12 0.12 0.14 0.15 0.13 0.14 0.12 0.09 0.05 0.05 0.06 0.06 0.06 0.07 0.08 0.10 0.10 0.06 0.04
0.05 0.06 0.11 0.13 0.11 0.09 0.09 0.09 0.10 0.11 0.10 0.08 0.07 0.08 0.10 0.09 0.09 0.15 0.18 0.17 0.16 0.13 0.09 0.10 0.13 0.12 0.12 0.12 0.12 0.13 0.10 0.08 0.06 0.07 0.06 0.06 0.06 0.09 0.11 0.10 0.09 0.05 0.04
0.01 0.01 0.03 0.07 0.06 0.07 0.07 0.07 0.07 0.07 0.07 0.07 0.08 0.09 0.10 0.09 0.09 0.09 0.11 0.11 0.13 0.13 0.10 0.10 0.11 0.11 0.11 0.10 0.09 0.11 0.08 0.06 0.08 0.10 0.10 0.09 0.06 0.07 0.08 0.07 0.06 0.06 0.05
0.01 0.01 0.01 0.03 0.05 0.05 0.06 0.06 0.05 0.05 0.07 0.08 0.12 0.10 0.07 0.08 0.09 0.08 0.07 0.07 0.09 0.13 0.12 0.10 0.10 0.10 0.09 0.08 0.07 0.10 0.09 0.06 0.09 0.14 0.11 0.09 0.09 0.08 0.07 0.05 0.06 0.07 0.06
0.01 0.01 0.01 0.02 0.03 0.05 0.06 0.05 0.04 0.05 0.07 0.08 0.10 0.07 0.06 0.06 0.07 0.08 0.06 0.09 0.15 0.16 0.15 0.13 0.11 0.10 0.08 0.07 0.06 0.08 0.08 0.08 0.11 0.12 0.10 0.11 0.11 0.11 0.07 0.06 0.08 0.08 0.08
0.02 0.01 0.00 0.02 0.03 0.04 0.06 0.07 0.05 0.06 0.07 0.08 0.10 0.08 0.07 0.07 0.06 0.06 0.05 0.08 0.11 0.14 0.14 0.13 0.12 0.08 0.06 0.06 0.05 0.06 0.08 0.09 0.09 0.08 0.10 0.11 0.15 0.18 0.14 0.11 0.10 0.10 0.10
0.02 0.02 0.01 0.02 0.04 0.04 0.05 0.07 0.05 0.05 0.06 0.07 0.10 0.10 0.09 0.08 0.06 0.05 0.04 0.05 0.05 0.07 0.12 0.14 0.12 0.09 0.05 0.05 0.04 0.04 0.05 0.07 0.06 0.06 0.09 0.12 0.16 0.18 0.19 0.16 0.12 0.08 0.08
0.01 0.01 0.01 0.01 0.03 0.04 0.04 0.06 0.06 0.04 0.04 0.05 0.06 0.08 0.07 0.06 0.05 0.03 0.03 0.04 0.04 0.04 0.09 0.12 0.11 0.07 0.05 0.06 0.05 0.03 0.03 0.03 0.04 0.06 0.07 0.10 0.11 0.13 0.20 0.18 0.12 0.07 0.05
0.02 0.02 0.04 0.03 0.02 0.04 0.05 0.04 0.05 0.04 0.04 0.04 0.03 0.04 0.05 0.05 0.03 0.03 0.02 0.03 0.04 0.04 0.07 0.09 0.09 0.08 0.06 0.05 0.03 0.02 0.02 0.03 0.04 0.07 0.07 0.09 0.09 0.11 0.15 0.15 0.10 0.05 0.05
0.02 0.02 0.04 0.06 0.04 0.02 0.03 0.04 0.04 0.03 0.04 0.04 0.03 0.03 0.05 0.05 0.04 0.04 0.03 0.03 0.05 0.05 0.06 0.06 0.07 0.07 0.05 0.04 0.03 0.02 0.02 0.03 0.03 0.06 0.08 0.07 0.07 0.09 0.09 0.09 0.08 0.05 0.04
0.02 0.02 0.02 0.03 0.03 0.03 0.03 0.02 0.04 0.04 0.03 0.05 0.04 0.04 0.08 0.13 0.09 0.07 0.05 0.04 0.06 0.07 0.06 0.06 0.06 0.05 0.06 0.07 0.05 0.03 0.04 0.04 0.04 0.05 0.07 0.06 0.05 0.05 0.06 0.06 0.05 0.03 0.03
0.02 0.01 0.02 0.03 0.03 0.03 0.03 0.03 0.06 0.06 0.06 0.08 0.09 0.08 0.11 0.11 0.10 0.07 0.04 0.04 0.05 0.05 0.06 0.05 0.05 0.05 0.06 0.08 0.07 0.06 0.05 0.06 0.07 0.06 0.06 0.04 0.03 0.03 0.03 0.04 0.03 0.02 0.03
0.01 0.02 0.03 0.03 0.03 0.03 0.03 0.03 0.05 0.08 0.08 0.08 0.09 0.07 0.08 0.06 0.05 0.06 0.06 0.08 0.08 0.06 0.06 0.05 0.04 0.05 0.07 0.08 0.08 0.07 0.07 0.07 0.08 0.08 0.06 0.03 0.03 0.02 0.02 0.02 0.02 0.03 0.02
0.01 0.02 0.04 0.04 0.04 0.04 0.03 0.03 0.04 0.06 0.07 0.05 0.07 0.05 0.05 0.06 0.07 0.07 0.07 0.08 0.07 0.06 0.07 0.06 0.05 0.04 0.05 0.05 0.05 0.06 0.07 0.07 0.07 0.07 0.05 0.04 0.03 0.02 0.02 0.02 0.02 0.02 0.02
0.02 0.03 0.03 0.03 0.04 0.04 0.04 0.05 0.05 0.07 0.06 0.05 0.07 0.06 0.05 0.05 0.06 0.05 0.05 0.07 0.07 0.05 0.05 0.08 0.06 0.06 0.05 0.06 0.06 0.05 0.07 0.09 0.08 0.06 0.06 0.04 0.02 0.02 0.02 0.02 0.02 0.02 0.03
0.03 0.03 0.03 0.03 0.04 0.05 0.06 0.05 0.06 0.05 0.04 0.03 0.05 0.05 0.05 0.06 0.07 0.06 0.06 0.07 0.06 0.05 0.06 0.06 0.06 0.07 0.09 0.08 0.08 0.07 0.07 0.07 0.07 0.05 0.05 0.05 0.03 0.02 0.02 0.03 0.02 0.03 0.04
0.03 0.02 0.03 0.03 0.03 0.06 0.10 0.07 0.04 0.04 0.03 0.04 0.04 0.04 0.04 0.04 0.06 0.07 0.07 0.06 0.05 0.03 0.05 0.07 0.06 0.06 0.08 0.08 0.07 0.07 0.07 0.06 0.06 0.07 0.06 0.07 0.05 0.03 0.02 0.01 0.02 0.04 0.03
0.04 0.04 0.03 0.02 0.04 0.08 0.10 0.08 0.06 0.04 0.04 0.04 0.04 0.04 0.04 0.05 0.05 0.07 0.06 0.04 0.05 0.03 0.04 0.06 0.06 0.06 0.07 0.07 0.06 0.05 0.05 0.05 0.05 0.05 0.06 0.07 0.05 0.03 0.02 0.01 0.02 0.04 0.04
0.04 0.04 0.04 0.04 0.05 0.07 0.08 0.08 0.07 0.06 0.07 0.06 0.05 0.04 0.05 0.05 0.05 0.08 0.07 0.06 0.05 0.03 0.04 0.04 0.06 0.06 0.07 0.05 0.04 0.04 0.04 0.04 0.04 0.05 0.06 0.05 0.05 0.04 0.04 0.02 0.02 0.03 0.05
0.02 0.02 0.04 0.06 0.05 0.06 0.06 0.09 0.09 0.08 0.08 0.08 0.07 0.06 0.05 0.05 0.05 0.08 0.07 0.05 0.04 0.06 0.06 0.07 0.07 0.07 0.06 0.04 0.02 0.04 0.05 0.05 0.07 0.08 0.07 0.07 0.07 0.05 0.07 0.08 0.08 0.06 0.04
0.01 0.02 0.03 0.07 0.06 0.07 0.09 0.09 0.09 0.10 0.09 0.07 0.07 0.06 0.07 0.05 0.06 0.10 0.08 0.09 0.06 0.09 0.09 0.06 0.07 0.07 0.06 0.05 0.06 0.07 0.07 0.07 0.10 0.12 0.11 0.11 0.13 0.12 0.11 0.12 0.12 0.12 0.10
0.01 0.02 0.03 0.05 0.05 0.05 0.07 0.07 0.07 0.08 0.07 0.07 0.06 0.09 0.08 0.06 0.08 0.07 0.08 0.07 0.07 0.11 0.11 0.10 0.10 0.11 0.10 0.09 0.11 0.12 0.13 0.13 0.11 0.09 0.11 0.12 0.14 0.15 0.12 0.10 0.11 0.13 0.13
0.01 0.01 0.03 0.04 0.03 0.03 0.04 0.04 0.06 0.07 0.06 0.06 0.08 0.09 0.07 0.05 0.05 0.08 0.08 0.05 0.08 0.07 0.11 0.12 0.12 0.13 0.14 0.14 0.11 0.12 0.15 0.20 0.18 0.11 0.09 0.11 0.14 0.14 0.12 0.10 0.08 0.09 0.09
0.01 0.00 0.02 0.03 0.03 0.03 0.03 0.04 0.04 0.07 0.08 0.09 0.08 0.10 0.09 0.07 0.07 0.08 0.08 0.09 0.10 0.07 0.09 0.06 0.09 0.13 0.14 0.14 0.16 0.13 0.12 0.18 0.22 0.21 0.16 0.11 0.09 0.09 0.09 0.08 0.09 0.09 0.08
0.00 0.00 0.01 0.02 0.03 0.03 0.03 0.04 0.04 0.05 0.06 0.06 0.08 0.13 0.11 0.09 0.07 0.06 0.09 0.12 0.12 0.11 0.12 0.10 0.12 0.11 0.11 0.13 0.15 0.14 0.14 0.17 0.19 0.22 0.23 0.17 0.12 0.08 0.07 0.09 0.09 0.08 0.07
0.00 0.00 0.01 0.01 0.02 0.02 0.02 0.02 0.03 0.04 0.05 0.06 0.08 0.10 0.10 0.10 0.08 0.08 0.11 0.13 0.11 0.12 0.14 0.13 0.12 0.11 0.14 0.13 0.13 0.13 0.15 0.15 0.17 0.20 0.21 0.20 0.18 0.13 0.11 0.12 0.10 0.09 0.07
MSLP
1008.93 1008.88 1008.93 1009.09 1009.35 1009.67 1009.99 1010.26 1010.45 1010.56 1010.59 1010.60 1010.61 1010.66 1010.77 1010.94 1011.14 1011.35 1011.56 1011.75 1011.93 1012.12 1012.34 1012.58 1012.87 1013.16 1013.45 1013.70 1013.89 1014.01 1014.08 1014.11 1014.14 1014.21 1014.35 1014.54 1014.80 1015.08 1015.37 1015.63 1015.86 1016.04 1016.19
1008.43 1008.53 1008.75 1009.09 1009.50 1009.93 1010.31 1010.60 1010.77 1010.83 1010.83 1010.81 1010.82 1010.90 1011.05 1011.26 1011.51 1011.75 1011.97 1012.17 1012.34 1012.53 1012.74 1013.00 1013.30 1013.62 1013.92 1014.17 1014.34 1014.42 1014.43 1014.42 1014.41 1014.46 1014.59 1014.81 1015.10 1015.42 1015.74 1016.03 1016.26 1016.43 1016.57
1008.00 1008.26 1008.65 1009.16 1009.71 1010.23 1010.66 1010.95 1011.09 1011.11 1011.06 1011.01 1011.01 1011.11 1011.29 1011.53 1011.81 1012.07 1012.30 1012.49 1012.66 1012.85 1013.07 1013.34 1013.67 1014.01 1014.32 1014.57 1014.72 1014.76 1014.73 1014.68 1014.64 1014.68 1014.82 1015.06 1015.38 1015.75 1016.10 1016.41 1016.65 1016.81 1016.93
1007.73 1008.13 1008.67 1009.31 1009.97 1010.56 1011.01 1011.29 1011.39 1011.36 1011.27 1011.19 1011.18 1011.28 1011.48 1011.74 1012.03 1012.31 1012.53 1012.72 1012.89 1013.08 1013.31 1013.61 1013.96 1014.33 1014.65 1014.89 1015.02 1015.03 1014.97 1014.87 1014.81 1014.85 1015.00 1015.28 1015.64 1016.03 1016.42 1016.74 1016.98 1017.14 1017.25
1007.68 1008.17 1008.81 1009.53 1010.24 1010.86 1011.32 1011.57 1011.63 1011.55 1011.42 1011.32 1011.30 1011.41 1011.62 1011.90 1012.20 1012.47 1012.69 1012.88 1013.05 1013.24 1013.50 1013.82 1014.19 1014.57 1014.90 1015.13 1015.24 1015.22 1015.12 1015.01 1014.94 1014.98 1015.15 1015.46 1015.85 1016.28 1016.68 1017.01 1017.25 1017.40 1017.50
1007.83 1008.36 1009.04 1009.78 1010.50 1011.10 1011.52 1011.73 1011.75 1011.64 1011.49 1011.38 1011.38 1011.50 1011.73 1012.02 1012.32 1012.59 1012.81 1012.99 1013.16 1013.37 1013.64 1013.99 1014.38 1014.77 1015.10 1015.32 1015.40 1015.35 1015.22 1015.09 1015.02 1015.07 1015.27 1015.61 1016.03 1016.48 1016.89 1017.21 1017.44 1017.57 1017.66
1008.14 1008.67 1009.31 1010.02 1010.69 1011.24 1011.60 1011.77 1011.76 1011.63 1011.48 1011.39 1011.41 1011.56 1011.81 1012.11 1012.42 1012.69 1012.90 1013.08 1013.26 1013.49 1013.78 1014.14 1014.55 1014.94 1015.26 1015.45 1015.50 1015.43 1015.28 1015.14 1015.07 1015.15 1015.38 1015.74 1016.18 1016.64 1017.05 1017.36 1017.56 1017.67 1017.75
1008.54 1009.01 1009.58 1010.21 1010.80 1011.27 1011.57 1011.69 1011.66 1011.54 1011.41 1011.36 1011.42 1011.60 1011.88 1012.20 1012.51 1012.78 1013.00 1013.18 1013.37 1013.61 1013.92 1014.29 1014.70 1015.09 1015.38 1015.54 1015.57 1015.47 1015.31 1015.17 1015.11 1015.21 1015.47 1015.86 1016.32 1016.78 1017.18 1017.46 1017.64 1017.72 1017.77
1008.92 1009.32 1009.81 1010.34 1010.83 1011.22 1011.46 1011.54 1011.50 1011.40 1011.32 1011.31 1011.42 1011.65 1011.95 1012.29 1012.61 1012.89 1013.11 1013.30 1013.50 1013.75 1014.06 1014.44 1014.84 1015.20 1015.47 1015.60 1015.59 1015.47 1015.31 1015.17 1015.14 1015.27 1015.56 1015.97 1016.45 1016.91 1017.29 1017.56 1017.70 1017.75 1017.77
1009.21 1009.56 1009.97 1010.41 1010.82 1011.13 1011.32 1011.37 1011.34 1011.27 1011.23 1011.28 1011.45 1011.71 1012.04 1012.40 1012.73 1013.01 1013.23 1013.42 1013.63 1013.88 1014.20 1014.56 1014.94 1015.28 1015.51 1015.61 1015.57 1015.44 1015.27 1015.15 1015.15 1015.31 1015.63 1016.07 1016.56 1017.02 1017.39 1017.64 1017.76 1017.78 1017.78
1009.38 1009.70 1010.07 1010.45 1010.80 1011.06 1011.21 1011.25 1011.23 1011.20 1011.20 1011.30 1011.50 1011.80 1012.15 1012.51 1012.85 1013.12 1013.35 1013.54 1013.75 1014.00 1014.31 1014.65 1015.00 1015.30 1015.50 1015.56 1015.50 1015.36 1015.20 1015.09 1015.11 1015.30 1015.65 1016.11 1016.62 1017.09 1017.46 1017.70 1017.81 1017.82 1017.80
1009.44 1009.77 1010.13 1010.49 1010.81 1011.04 1011.17 1011.21 1011.21 1011.20 1011.24 1011.37 1011.60 1011.91 1012.27 1012.63 1012.96 1013.23 1013.45 1013.65 1013.85 1014.09 1014.38 1014.69 1015.00 1015.26 1015.42 1015.45 1015.37 1015.22 1015.07 1014.98 1015.02 1015.23 1015.59 1016.07 1016.59 1017.07 1017.45 1017.71 1017.83 1017.85 1017.83
1009.43 1009.81 1010.20 1010.57 1010.87 1011.09 1011.22 1011.27 1011.28 1011.29 1011.35 1011.49 1011.73 1012.04 1012.39 1012.74 1013.06 1013.32 1013.54 1013.73 1013.93 1014.15 1014.40 1014.68 1014.95 1015.16 1015.28 1015.28 1015.19 1015.04 1014.89 1014.81 1014.86 1015.07 1015.44 1015.91 1016.43 1016.93 1017.33 1017.61 1017.76 1017.81 1017.82
1009.43 1009.87 1010.30 1010.69 1011.00 1011.22 1011.35 1011.41 1011.42 1011.44 1011.51 1011.65 1011.88 1012.17 1012.50 1012.83 1013.14 1013.39 1013.60 1013.79 1013.97 1014.17 1014.39 1014.62 1014.84 1015.01 1015.09 1015.08 1014.98 1014.82 1014.68 1014.60 1014.64 1014.83 1015.17 1015.62 1016.13 1016.62 1017.05 1017.36 1017.56 1017.66 1017.71
1009.49 1009.99 1010.45 1010.85 1011.17 1011.40 1011.53 1011.59 1011.61 1011.63 1011.69 1011.82 1012.03 1012.29 1012.60 1012.91 1013.20 1013.44 1013.65 1013.82 1013.99 1014.16 1014.35 1014.54 1014.72 1014.84 1014.90 1014.87 1014.76 1014.61 1014.45 1014.36 1014.37 1014.52 1014.81 1015.21 1015.68 1016.15 1016.58 1016.93 1017.18 1017.35 1017.45
1009.68 1010.20 1010.66 1011.06 1011.37 1011.59 1011.72 1011.78 1011.81 1011.83 1011.88 1011.99 1012.17 1012.41 1012.68 1012.97 1013.24 1013.48 1013.68 1013.85 1014.00 1014.15 1014.31 1014.46 1014.59 1014.69 1014.72 1014.68 1014.57 1014.42 1014.27 1014.15 1014.11 1014.19 1014.39 1014.70 1015.09 1015.52 1015.93 1016.30 1016.60 1016.83 1017.00
1009.99 1010.49 1010.92 1011.28 1011.56 1011.76 1011.89 1011.96 1012.00 1012.02 1012.07 1012.17 1012.32 1012.52 1012.76 1013.01 1013.27 1013.50 1013.70 1013.87 1014.02 1014.15 1014.28 1014.40 1014.50 1014.57 1014.59 1014.56 1014.46 1014.31 1014.15 1013.99 1013.90 1013.88 1013.97 1014.16 1014.44 1014.78 1015.14 1015.51 1015.84 1016.12 1016.35
1010.41 1010.83 1011.19 1011.49 1011.72 1011.91 1012.04 1012.13 1012.18 1012.22 1012.27 1012.35 1012.47 1012.64 1012.84 1013.07 1013.30 1013.53 1013.73 1013.90 1014.04 1014.17 1014.27 1014.37 1014.45 1014.51 1014.53 1014.50 1014.42 1014.29 1014.12 1013.94 1013.77 1013.65 1013.61 1013.65 1013.79 1014.01 1014.30 1014.62 1014.96 1015.28 1015.56
1010.89 1011.20 1011.45 1011.67 1011.86 1012.03 1012.17 1012.28 1012.37 1012.44 1012.50 1012.57 1012.66 1012.78 1012.94 1013.13 1013.34 1013.56 1013.75 1013.93 1014.07 1014.19 1014.29 1014.37 1014.44 1014.50 1014.53 1014.52 1014.47 1014.36 1014.20 1013.99 1013.76 1013.54 1013.36 1013.24 1013.22 1013.30 1013.48 1013.73 1014.05 1014.37 1014.69
1011.36 1011.54 1011.69 1011.82 1011.97 1012.13 1012.30 1012.45 1012.59 1012.70 1012.77 1012.83 1012.88 1012.96 1013.07 1013.21 1013.39 1013.58 1013.77 1013.95 1014.09 1014.21 1014.31 1014.39 1014.46 1014.52 1014.57 1014.60 1014.58 1014.50 1014.36 1014.14 1013.87 1013.55 1013.25 1012.98 1012.80 1012.73 1012.77 1012.94 1013.20 1013.51 1013.85
1011.77 1011.83 1011.87 1011.94 1012.06 1012.23 1012.44 1012.65 1012.84 1012.99 1013.08 1013.12 1013.14 1013.16 1013.21 1013.29 1013.42 1013.59 1013.77 1013.94 1014.09 1014.22 1014.31 1014.39 1014.47 1014.54 1014.62 1014.68 1014.71 1014.68 1014.57 1014.37 1014.07 1013.69 1013.29 1012.89 1012.56 1012.34 1012.25 1012.30 1012.49 1012.78 1013.11
1012.07 1012.04 1012.01 1012.03 1012.14 1012.34 1012.59 1012.87 1013.12 1013.31 1013.41 1013.44 1013.41 1013.37 1013.34 1013.36 1013.44 1013.57 1013.72 1013.89 1014.05 1014.18 1014.28 1014.36 1014.44 1014.53 1014.63 1014.73 1014.81 1014.84 1014.78 1014.61 1014.32 1013.92 1013.45 1012.95 1012.50 1012.15 1011.93 1011.89 1011.99 1012.23 1012.55
1012.25 1012.17 1012.10 1012.11 1012.22 1012.45 1012.76 1013.09 1013.39 1013.61 1013.72 1013.73 1013.65 1013.54 1013.45 1013.40 1013.41 1013.50 1013.64 1013.80 1013.95 1014.08 1014.19 1014.27 1014.35 1014.45 1014.57 1014.70 1014.83 1014.91 1014.92 1014.80 1014.55 1014.16 1013.67 1013.12 1012.59 1012.14 1011.83 1011.68 1011.71 1011.90 1012.20
1012.32 1012.23 1012.15 1012.15 1012.29 1012.55 1012.89 1013.27 1013.61 1013.85 1013.96 1013.94 1013.82 1013.65 1013.49 1013.37 1013.34 1013.38 1013.50 1013.64 1013.79 1013.92 1014.02 1014.10 1014.17 1014.27 1014.39 1014.55 1014.71 1014.85 1014.93 1014.88 1014.69 1014.35 1013.87 1013.32 1012.76 1012.25 1011.87 1011.65 1011.63 1011.77 1012.04
1012.31 1012.23 1012.16 1012.18 1012.33 1012.60 1012.97 1013.37 1013.73 1013.98 1014.08 1014.04 1013.89 1013.67 1013.45 1013.29 1013.21 1013.22 1013.32 1013.45 1013.59 1013.71 1013.80 1013.86 1013.91 1013.99 1014.10 1014.26 1014.45 1014.63 1014.77 1014.79 1014.68 1014.41 1013.99 1013.47 1012.92 1012.40 1011.99 1011.74 1011.67 1011.78 1012.04
1012.22 1012.18 1012.13 1012.17 1012.32 1012.60 1012.97 1013.37 1013.73 1013.97 1014.07 1014.01 1013.84 1013.60 1013.35 1013.16 1013.05 1013.04 1013.12 1013.24 1013.36 1013.46 1013.53 1013.56 1013.58 1013.62 1013.71 1013.85 1014.04 1014.25 1014.42 1014.52 1014.48 1014.29 1013.96 1013.50 1013.00 1012.51 1012.11 1011.85 1011.77 1011.86 1012.11
Thickness
5782 5779 5776 5775 5774 5774 5773 5773 5773 5772 5772 5771 5772 5771 5771 5771 5771 5770 5769 5768 5767 5767 5766 5766 5764 5763 5762 5762 5761 5761 5760 5759 5759 5759 5757 5756 5755 5753 5752 5751 5751 5749 5748
5785 5779 5775 5774 5773 5772 5772 5771 5771 5770 5770 5770 5770 5769 5769 5769 5768 5767 5766 5766 5765 5764 5764 5764 5763 5761 5760 5760 5759 5758 5758 5758 5758 5757 5756 5754 5753 5752 5751 5750 5750 5747 5746
5787 5780 5775 5773 5771 5771 5770 5770 5769 5769 5769 5769 5769 5768 5767 5767 5767 5766 5765 5764 5763 5762 5762 5761 5760 5759 5758 5757 5757 5757 5757 5756 5756 5756 5755 5753 5751 5750 5749 5749 5748 5746 5744
5790 5782 5775 5771 5770 5769 5768 5768 5768 5767 5767 5767 5767 5767 5767 5766 5765 5765 5764 5764 5762 5761 5761 5760 5759 5758 5757 5756 5756 5756 5755 5755 5755 5754 5754 5753 5751 5749 5748 5747 5746 5744 5743
5790 5781 5774 5771 5769 5768 5767 5766 5766 5766 5765 5765 5767 5767 5767 5766 5764 5764 5763 5763 5761 5760 5759 5759 5757 5757 5756 5756 5755 5755 5755 5755 5754 5754 5753 5751 5750 5747 5746 5745 5745 5743 5742
5790 5781 5774 5771 5769 5767 5766 5765 5765 5765 5764 5764 5765 5766 5765 5764 5763 5763 5762 5760 5760 5759 5759 5758 5757 5756 5755 5755 5755 5755 5755 5755 5755 5755 5753 5751 5748 5746 5745 5744 5744 5742 5741
5790 5782 5775 5771 5769 5767 5766 5765 5764 5764 5764 5763 5764 5764 5763 5762 5761 5761 5760 5759 5759 5758 5758 5757 5756 5755 5754 5754 5754 5755 5755 5755 5755 5755 5753 5750 5747 5745 5744 5743 5742 5741 5740
5791 5783 5774 5771 5769 5767 5766 5765 5764 5764 5763 5762 5762 5762 5761 5761 5760 5759 5759 5758 5757 5757 5757 5756 5755 5754 5754 5753 5754 5754 5755 5755 5756 5756 5753 5749 5746 5745 5744 5743 5742 5741 5739
5792 5786 5778 5772 5769 5767 5766 5765 5764 5763 5763 5762 5762 5761 5760 5759 5759 5758 5757 5757 5757 5756 5755 5755 5754 5754 5753 5753 5754 5754 5755 5756 5756 5756 5753 5749 5747 5745 5743 5742 5742 5741 5740
5791 5787 5782 5777 5773 5771 5768 5765 5764 5763 5762 5762 5762 5761 5760 5760 5759 5758 5757 5756 5756 5755 5755 5754 5754 5754 5754 5754 5754 5754 5755 5756 5756 5756 5753 5749 5747 5745 5744 5742 5741 5741 5740
5787 5786 5784 5781 5778 5776 5772 5768 5765 5764 5763 5762 5762 5761 5761 5761 5760 5759 5758 5756 5756 5755 5755 5754 5754 5754 5754 5754 5754 5754 5755 5756 5757 5756 5753 5749 5748 5746 5744 5743 5741 5740 5740
5783 5784 5784 5782 5780 5778 5776 5771 5768 5767 5764 5764 5764 5763 5762 5762 5762 5760 5758 5757 5757 5756 5755 5755 5755 5755 5755 5755 5755 5755 5756 5758 5758 5756 5752 5750 5748 5746 5744 5743 5742 5741 5740
5785 5784 5783 5782 5780 5778 5776 5774 5771 5770 5767 5766 5765 5765 5764 5763 5762 5760 5759 5757 5757 5757 5757 5756 5756 5757 5757 5757 5758 5757 5758 5759 5759 5757 5752 5751 5749 5747 5745 5744 5743 5742 5740
5785 5783 5783 5781 5778 5776 5775 5774 5773 5772 5770 5768 5766 5766 5765 5765 5764 5763 5762 5760 5760 5760 5759 5759 5759 5760 5760 5759 5759 5759 5760 5760 5760 5757 5753 5751 5750 5748 5747 5745 5744 5742 5741
5785 5784 5783 5780 5776 5775 5774 5774 5773 5772 5771 5769 5768 5767 5766 5766 5765 5764 5763 5762 5762 5762 5761 5761 5761 5761 5761 5761 5761 5760 5761 5760 5760 5758 5754 5752 5751 5749 5748 5747 5745 5744 5742
5786 5784 5783 5781 5778 5775 5774 5773 5772 5772 5771 5771 5769 5768 5767 5766 5765 5764 5763 5763 5763 5763 5763 5762 5762 5762 5761 5762 5761 5761 5761 5761 5760 5758 5756 5753 5752 5751 5749 5748 5747 5745 5743
5789 5787 5785 5783 5780 5777 5775 5774 5774 5774 5773 5772 5770 5769 5768 5767 5766 5765 5764 5763 5764 5764 5764 5763 5763 5763 5761 5762 5761 5762 5762 5761 5761 5760 5758 5756 5753 5752 5751 5749 5748 5747 5745
5792 5789 5787 5787 5782 5779 5777 5775 5775 5775 5774 5772 5771 5769 5768 5767 5766 5765 5765 5765 5765 5765 5764 5763 5763 5761 5760 5760 5760 5762 5762 5761 5761 5761 5760 5758 5756 5754 5752 5750 5749 5748 5746
5795 5791 5787 5786 5783 5780 5778 5776 5776 5775 5774 5772 5771 5770 5768 5768 5767 5766 5765 5765 5766 5766 5765 5764 5762 5761 5759 5759 5760 5761 5762 5762 5761 5762 5761 5759 5758 5757 5755 5752 5750 5749 5747
5797 5793 5789 5787 5784 5782 5779 5777 5775 5775 5774 5773 5772 5770 5769 5768 5767 5766 5765 5765 5766 5765 5763 5763 5760 5761 5760 5759 5761 5761 5761 5762 5761 5761 5761 5760 5759 5758 5756 5754 5751 5749 5747
5799 5794 5790 5786 5784 5782 5779 5776 5773 5772 5773 5773 5773 5772 5770 5769 5768 5766 5766 5765 5764 5763 5762 5762 5760 5758 5757 5759 5756 5754 5757 5760 5760 5760 5760 5759 5759 5757 5756 5754 5752 5750 5748
5799 5796 5792 5788 5786 5783 5781 5779 5777 5776 5775 5775 5774 5772 5771 5769 5768 5767 5764 5763 5763 5762 5761 5760 5758 5755 5755 5758 5752 5747 5744 5748 5754 5759 5758 5757 5756 5755 5754 5753 5751 5750 5748
5802 5798 5795 5791 5788 5785 5784 5782 5779 5777 5775 5773 5771 5770 5770 5770 5768 5767 5765 5764 5763 5762 5759 5758 5757 5754 5751 5754 5755 5748 5739 5736 5742 5749 5753 5753 5751 5752 5751 5750 5749 5748 5747
5806 5803 5798 5794 5790 5787 5785 5782 5778 5773 5769 5771 5771 5771 5770 5770 5768 5767 5765 5763 5762 5761 5759 5758 5757 5755 5752 5748 5751 5751 5749 5746 5738 5736 5742 5747 5747 5747 5747 5747 5747 5745 5744
5811 5806 5801 5796 5791 5789 5786 5783 5779 5775 5773 5773 5772 5770 5769 5769 5768 5767 5765 5763 5761 5759 5758 5757 5756 5754 5752 5749 5747 5747 5746 5745 5743 5735 5731 5736 5740 5743 5744 5744 5743 5742 5740
5814 5809 5803 5796 5792 5790 5787 5784 5780 5775 5773 5771 5769 5767 5767 5767 5766 5766 5765 5762 5760 5758 5757 5756 5755 5753 5750 5749 5747 5745 5742 5739 5738 5736 5731 5730 5731 5735 5739 5739 5739 5737 5736